This is the latest recevied weather packets stored in our database for station/object KC1OEK-13. If no packets are shown the sender has not sent any weather packets the latest 1 day(s).
| Time | Temp. | Humidity | Pressure | Rain* | Wind** | Luminosity | Snow |
|---|---|---|---|---|---|---|---|
| 1778011360 | 25° C | 47% | 1009.6 hPa | 0 mm | 3.58 m/s, 203° | 453 W/m² | - |
| 1778011055 | 25° C | 48% | 1009.6 hPa | 0 mm | 4.02 m/s, 139° | 511 W/m² | - |
| 1778010753 | 25.56° C | 48% | 1009.5 hPa | 0 mm | 0.45 m/s, 303° | 490 W/m² | - |
| 1778010450 | 25.56° C | 45% | 1009.4 hPa | 0 mm | 2.68 m/s, 173° | 532 W/m² | - |
| 1778010147 | 26.11° C | 46% | 1009.3 hPa | 0 mm | 4.92 m/s, 214° | 541 W/m² | - |
| 1778009842 | 25.56° C | 46% | 1009.4 hPa | 0 mm | 2.68 m/s, 222° | 530 W/m² | - |
| 1778009540 | 25.56° C | 46% | 1009.4 hPa | 0 mm | 2.24 m/s, 175° | 556 W/m² | - |
| 1778009239 | 26.11° C | 45% | 1009.6 hPa | 0 mm | 3.13 m/s, 203° | 583 W/m² | - |
| 1778008936 | 26.11° C | 47% | 1009.5 hPa | 0 mm | 3.58 m/s, 216° | 552 W/m² | - |
| 1778008634 | 25.56° C | 47% | 1009.4 hPa | 0 mm | 2.68 m/s, 238° | 544 W/m² | - |
| 1778008332 | 25.56° C | 46% | 1009.5 hPa | 0 mm | 1.34 m/s, 238° | 577 W/m² | - |
| 1778008028 | 25.56° C | 44% | 1009.5 hPa | 0 mm | 3.13 m/s, 157° | 623 W/m² | - |
| 1778007727 | 26.67° C | 46% | 1009.8 hPa | 0 mm | 3.13 m/s, 227° | 625 W/m² | - |
| 1778007425 | 26.11° C | 44% | 1009.7 hPa | 0 mm | 3.58 m/s, 336° | 597 W/m² | - |
| 1778007121 | 26.67° C | 46% | 1009.7 hPa | 0 mm | 2.24 m/s, 210° | 658 W/m² | - |
| 1778006817 | 26.11° C | 44% | 1009.9 hPa | 0 mm | 2.68 m/s, 231° | 657 W/m² | - |
| 1778006514 | 26.11° C | 47% | 1010.1 hPa | 0 mm | 2.68 m/s, 218° | 667 W/m² | - |
| 1778006211 | 26.11° C | 45% | 1010.1 hPa | 0 mm | 4.47 m/s, 212° | 648 W/m² | - |
| 1778005909 | 26.11° C | 45% | 1009.9 hPa | 0 mm | 1.79 m/s, 197° | 656 W/m² | - |
| 1778005605 | 26.11° C | 45% | 1010 hPa | 0 mm | 3.13 m/s, 143° | 655 W/m² | - |
| 1778005302 | 26.67° C | 46% | 1010 hPa | 0 mm | 1.34 m/s, 273° | 698 W/m² | - |
| 1778004998 | 26.11° C | 46% | 1009.9 hPa | 0 mm | 2.68 m/s, 12° | 699 W/m² | - |
| 1778004696 | 26.67° C | 46% | 1009.9 hPa | 0 mm | 1.79 m/s, 169° | 702 W/m² | - |
| 1778004392 | 26.67° C | 46% | 1010 hPa | 0 mm | 1.34 m/s, 225° | 712 W/m² | - |
| 1778004090 | 27.22° C | 43% | 1009.8 hPa | 0 mm | 2.68 m/s, 265° | 717 W/m² | - |
* Rain latest hour (hover to see other rain measurements)
** Current wind speed in m/s (hover to see current wind gust speed)